CZ-4 DEB, 28075

Orbit data source: Space-Track

CZ-4 DEB, 28075 is space debris in SSO originally from a launch on Thu, 14 Oct 1999 UTC launched from the Taiyaun Space Center, China (TSC). Debris objects in space refer to the collection of defunct objects orbiting the Earth. Examples of debris include non-operational satellites, rocket bodies, and fragments generated from explosions, collisions, or faulty payload assembly.

Loading next visibility...
Identifier
28075, 1999-057NF
Orbit
SSO
Country
Flag of CNCN / PRC
Related business
Manufacturer
Unknown
Mission
Spacecraft
Bus & Motor
Unknown
Mass
Unknown
Launch date (UTC)
1999-10-14 (26 years ago)
Launch vehicle
Unknown
Launch site
Taiyaun Space Center, China (TSC)
Object type
Payload
Rocket body
Debris
Shape & HBR
Unknown shape, 0.1 m
Radar Cross Section
Small (<0.1 m²)

Expand to show TLE details & history
Last TLE update: 6 days ago

TLE from 6 days ago
0 CZ-4 DEB
1 28075U 99057NF  26032.11102781  .00001395  00000-0  40757-3 0  9990
2 28075  98.6360  94.7802 0095293 235.8968 123.3153 14.43103815714566
Epoch: 2026-02-01T02:39Z
TLE epoch observation values (Epoch: 2026-02-01T02:39:52.802Z)
Latitude
0.00002°
Longitude
-76.51517°
Altitude
788.965 km
Speed
7.439 km/s
True Right ascension
06h 19m 07s
True Declination
0° 00' 00"
Sunlit
Object was in full shadow at epoch
Visualization orbit readout
Latitude
Unknown
Longitude
Unknown
Altitude
Unknown
Speed
Unknown
Apparent Right ascension
Unknown
Apparent Declination
Unknown
Sunlit
N/A
Visualization observer readout
Local Sidereal Time
13:32:50
Azimuth
Unknown
Elevation
Unknown
Doppler factor
Unknown
Orbital elements
Apogee altitude
813.268 km
Perigee altitude
677.503 km
Semi-major axis
7,123.523 km
Eccentricity
0.00953
Inclination
98.636°
RAAN
94.7802°
Arg. of periapsis
235.8968°
True anomaly
124.22185°
Mean anomaly
123.3153°
Eccentric anomaly
123.76917°
Mean motion
3.60995 °/min
Orbital period
99.72 mins
BSTAR
0.00040757
Loading maneuver chart data...
Computing Atmospheric mass density...

Documentation

Showing up to 5 results
|